Time,TemperatureF,DewpointF,PressureIn,WindDirection,WindDirectionDegrees,WindSpeedMPH,WindSpeedGustMPH,Humidity,HourlyPrecipIn,Conditions,Clouds,dailyrainin,SoftwareType,DateUTC
2012-06-30 06:19:00,48.8,36.0,29.79,SE,135,0.0,0.0,61,0.00,,---,0.00,VWS V14.01,2012-06-30 12:19:00,
2012-06-30 06:24:00,49.8,36.5,29.80,SE,136,0.0,0.0,60,0.00,,---,0.00,VWS V14.01,2012-06-30 12:24:00,
2012-06-30 06:29:00,50.3,36.5,29.80,SE,136,0.0,0.0,59,0.00,,---,0.00,VWS V14.01,2012-06-30 12:29:00,
2012-06-30 06:34:00,50.8,36.6,29.78,SE,136,0.0,0.0,58,0.00,,---,0.00,VWS V14.01,2012-06-30 12:34:00,
2012-06-30 06:39:00,51.3,37.0,29.77,SE,136,0.0,0.0,58,0.00,,---,0.00,VWS V14.01,2012-06-30 12:39:00,
2012-06-30 06:44:00,51.6,37.3,29.77,SE,136,0.0,0.0,58,0.00,,---,0.00,VWS V14.01,2012-06-30 12:44:00,
2012-06-30 06:49:00,51.9,37.6,29.78,SE,136,0.0,0.0,58,0.00,,---,0.00,VWS V14.01,2012-06-30 12:49:00,
2012-06-30 06:54:00,52.0,38.1,29.78,SE,136,0.0,2.0,59,0.00,,---,0.00,VWS V14.01,2012-06-30 12:54:00,
2012-06-30 06:59:00,51.7,37.8,29.78,SE,136,1.0,2.0,59,0.00,,---,0.00,VWS V14.01,2012-06-30 12:59:00,
2012-06-30 07:04:00,51.9,37.6,29.80,SE,136,0.0,2.0,58,0.00,,---,0.00,VWS V14.01,2012-06-30 13:04:00,
2012-06-30 07:09:00,52.7,37.9,29.80,SE,136,0.0,3.0,57,0.00,,---,0.00,VWS V14.01,2012-06-30 13:09:00,
2012-06-30 07:14:00,53.4,38.6,29.80,SE,136,0.0,2.0,57,0.00,,---,0.00,VWS V14.01,2012-06-30 13:14:00,
2012-06-30 07:19:00,54.1,38.8,29.78,SE,136,0.0,0.0,56,0.00,,---,0.00,VWS V14.01,2012-06-30 13:19:00,
2012-06-30 07:24:00,54.9,39.5,29.78,SE,136,0.0,1.0,56,0.00,,---,0.00,VWS V14.01,2012-06-30 13:24:00,
2012-06-30 07:30:00,55.8,39.4,29.76,SE,136,0.0,0.0,54,0.00,,---,0.00,VWS V14.01,2012-06-30 13:30:00,
2012-06-30 07:35:00,56.9,40.0,29.76,SE,136,0.0,1.0,53,0.00,,---,0.00,VWS V14.01,2012-06-30 13:35:00,
2012-06-30 07:40:00,58.0,39.5,29.75,SE,136,0.0,1.0,50,0.00,,---,0.00,VWS V14.01,2012-06-30 13:40:00,
2012-06-30 07:45:00,59.0,39.9,29.75,SE,136,0.0,1.0,49,0.00,,---,0.00,VWS V14.01,2012-06-30 13:45:00,
2012-06-30 07:50:00,60.1,40.4,29.73,SE,136,0.0,1.0,48,0.00,,---,0.00,VWS V14.01,2012-06-30 13:50:00,
2012-06-30 07:55:00,61.1,40.7,29.73,SE,136,0.0,1.0,47,0.00,,---,0.00,VWS V14.01,2012-06-30 13:55:00,
2012-06-30 08:00:00,62.1,40.0,29.72,SE,136,0.0,5.0,44,0.00,,---,0.00,VWS V14.01,2012-06-30 14:00:00,
2012-06-30 08:05:00,62.6,41.0,29.75,SE,142,0.0,4.0,45,0.00,,---,0.00,VWS V14.01,2012-06-30 14:05:00,
2012-06-30 08:10:00,63.0,42.5,29.76,SE,142,0.0,1.0,47,0.00,,---,0.00,VWS V14.01,2012-06-30 14:10:00,
2012-06-30 08:15:00,63.6,41.3,29.74,SE,142,0.0,0.0,44,0.00,,---,0.00,VWS V14.01,2012-06-30 14:15:00,
2012-06-30 08:20:00,64.4,42.0,29.74,SE,142,3.0,3.0,44,0.00,,---,0.00,VWS V14.01,2012-06-30 14:20:00,
2012-06-30 08:25:00,64.9,43.7,29.74,SE,142,0.0,1.0,46,0.00,,---,0.00,VWS V14.01,2012-06-30 14:25:00,
2012-06-30 08:30:00,65.6,42.5,29.72,SE,142,1.0,1.0,43,0.00,,---,0.00,VWS V14.01,2012-06-30 14:30:00,
2012-06-30 08:35:00,66.3,41.3,29.72,SE,142,0.0,6.0,40,0.00,,---,0.00,VWS V14.01,2012-06-30 14:35:00,
2012-06-30 08:40:00,66.8,41.1,29.72,SE,142,0.0,4.0,39,0.00,,---,0.00,VWS V14.01,2012-06-30 14:40:00,
2012-06-30 08:45:00,67.5,43.6,29.72,SE,141,1.0,2.0,42,0.00,,---,0.00,VWS V14.01,2012-06-30 14:45:00,
2012-06-30 08:50:00,68.0,42.8,29.70,SE,142,0.0,5.0,40,0.00,,---,0.00,VWS V14.01,2012-06-30 14:50:00,
2012-06-30 08:55:00,68.2,43.0,29.70,SE,142,0.0,2.0,40,0.00,,---,0.00,VWS V14.01,2012-06-30 14:55:00,
2012-06-30 09:00:00,68.5,42.6,29.70,SE,141,0.0,2.0,39,0.00,,---,0.00,VWS V14.01,2012-06-30 15:00:00,
2012-06-30 09:05:00,69.2,43.2,29.73,SE,142,0.0,1.0,39,0.00,,---,0.00,VWS V14.01,2012-06-30 15:05:00,
2012-06-30 09:10:00,70.0,43.2,29.72,SE,142,2.0,2.0,38,0.00,,---,0.00,VWS V14.01,2012-06-30 15:10:00,
2012-06-30 09:15:00,71.1,42.8,29.72,SE,141,0.0,1.0,36,0.00,,---,0.00,VWS V14.01,2012-06-30 15:15:00,
2012-06-30 09:20:00,71.9,42.8,29.70,SE,141,0.0,1.0,35,0.00,,---,0.00,VWS V14.01,2012-06-30 15:20:00,
2012-06-30 09:25:00,72.7,43.5,29.70,SE,141,0.0,0.0,35,0.00,,---,0.00,VWS V14.01,2012-06-30 15:25:00,
2012-06-30 09:30:00,73.4,44.1,29.69,SE,142,1.0,2.0,35,0.00,,---,0.00,VWS V14.01,2012-06-30 15:30:00,
2012-06-30 09:35:00,73.6,43.5,29.68,SE,142,0.0,1.0,34,0.00,,---,0.00,VWS V14.01,2012-06-30 15:35:00,
2012-06-30 09:40:00,74.3,44.1,29.67,SE,142,0.0,0.0,34,0.00,,---,0.00,VWS V14.01,2012-06-30 15:40:00,
2012-06-30 09:45:00,75.4,44.3,29.67,SE,141,0.0,2.0,33,0.00,,---,0.00,VWS V14.01,2012-06-30 15:45:00,
2012-06-30 09:50:00,75.6,42.9,29.66,SE,142,0.0,2.0,31,0.00,,---,0.00,VWS V14.01,2012-06-30 15:50:00,
2012-06-30 09:55:00,76.3,44.3,29.65,SE,141,1.0,1.0,32,0.00,,---,0.00,VWS V14.01,2012-06-30 15:55:00,
2012-06-30 10:00:00,77.2,44.2,29.66,SE,141,5.0,5.0,31,0.00,,---,0.00,VWS V14.01,2012-06-30 16:00:00,
2012-06-30 10:05:00,77.4,44.4,29.64,SE,142,0.0,2.0,31,0.00,,---,0.00,VWS V14.01,2012-06-30 16:05:00,
2012-06-30 10:11:00,78.9,44.9,29.62,SE,142,0.0,2.0,30,0.00,,---,0.00,VWS V14.01,2012-06-30 16:11:00,
2012-06-30 10:16:00,78.8,45.6,29.62,SSE,155,1.0,5.0,31,0.00,,---,0.00,VWS V14.01,2012-06-30 16:16:00,
2012-06-30 10:21:00,78.4,44.4,29.63,SSE,155,0.0,5.0,30,0.00,,---,0.00,VWS V14.01,2012-06-30 16:21:00,
2012-06-30 10:26:00,78.5,44.5,29.61,SSE,155,0.0,2.0,30,0.00,,---,0.00,VWS V14.01,2012-06-30 16:26:00,
2012-06-30 10:31:00,79.2,43.3,29.62,SSE,155,3.0,5.0,28,0.00,,---,0.00,VWS V14.01,2012-06-30 16:31:00,
2012-06-30 10:36:00,79.5,43.6,29.61,SSE,157,1.0,7.0,28,0.00,,---,0.00,VWS V14.01,2012-06-30 16:36:00,
2012-06-30 10:41:00,80.7,43.7,29.60,SSE,157,2.0,4.0,27,0.00,,---,0.00,VWS V14.01,2012-06-30 16:41:00,
2012-06-30 10:46:00,81.3,42.2,29.60,South,176,4.0,8.0,25,0.00,,---,0.00,VWS V14.01,2012-06-30 16:46:00,
2012-06-30 10:51:00,81.0,41.9,29.60,South,176,0.0,5.0,25,0.00,,---,0.00,VWS V14.01,2012-06-30 16:51:00,
2012-06-30 10:56:00,81.6,40.2,29.60,South,178,2.0,7.0,23,0.00,,---,0.00,VWS V14.01,2012-06-30 16:56:00,
2012-06-30 11:01:00,82.0,40.6,29.60,South,178,1.0,5.0,23,0.00,,---,0.00,VWS V14.01,2012-06-30 17:01:00,
2012-06-30 11:06:00,82.2,38.4,29.63,SSW,203,0.0,7.0,21,0.00,,---,0.00,VWS V14.01,2012-06-30 17:06:00,
2012-06-30 11:11:00,82.9,37.8,29.63,SSW,203,0.0,4.0,20,0.00,,---,0.00,VWS V14.01,2012-06-30 17:11:00,
2012-06-30 11:16:00,83.5,36.9,29.62,SW,226,1.0,10.0,19,0.00,,---,0.00,VWS V14.01,2012-06-30 17:16:00,
2012-06-30 11:21:00,84.0,41.1,29.61,SW,226,1.0,6.0,22,0.00,,---,0.00,VWS V14.01,2012-06-30 17:21:00,
2012-06-30 11:26:00,84.1,37.4,29.62,SW,226,0.0,7.0,19,0.00,,---,0.00,VWS V14.01,2012-06-30 17:26:00,
2012-06-30 11:31:00,84.5,39.1,29.62,SW,226,5.0,6.0,20,0.00,,---,0.00,VWS V14.01,2012-06-30 17:31:00,
2012-06-30 11:36:00,83.5,38.2,29.62,SW,226,5.0,9.0,20,0.00,,---,0.00,VWS V14.01,2012-06-30 17:36:00,
2012-06-30 11:41:00,82.7,37.6,29.63,SW,226,5.0,10.0,20,0.00,,---,0.00,VWS V14.01,2012-06-30 17:41:00,
2012-06-30 11:46:00,82.6,38.8,29.63,SW,226,4.0,6.0,21,0.00,,---,0.00,VWS V14.01,2012-06-30 17:46:00,
2012-06-30 11:51:00,83.0,37.8,29.63,SW,226,0.0,7.0,20,0.00,,---,0.00,VWS V14.01,2012-06-30 17:51:00,
2012-06-30 11:56:00,83.3,38.1,29.62,SW,226,6.0,8.0,20,0.00,,---,0.00,VWS V14.01,2012-06-30 17:56:00,
2012-06-30 12:01:00,83.2,38.0,29.62,SW,226,4.0,9.0,20,0.00,,---,0.00,VWS V14.01,2012-06-30 18:01:00,
2012-06-30 12:06:00,83.5,38.2,29.64,SW,226,8.0,8.0,20,0.00,,---,0.00,VWS V14.01,2012-06-30 18:06:00,
2012-06-30 12:11:00,83.9,38.6,29.64,SW,232,5.0,11.0,20,0.00,,---,0.00,VWS V14.01,2012-06-30 18:11:00,
2012-06-30 12:16:00,83.7,37.1,29.63,SW,232,1.0,6.0,19,0.00,,---,0.00,VWS V14.01,2012-06-30 18:16:00,
2012-06-30 12:21:00,84.0,37.3,29.63,SW,232,5.0,6.0,19,0.00,,---,0.00,VWS V14.01,2012-06-30 18:21:00,
2012-06-30 12:26:00,84.5,37.8,29.62,SW,232,0.0,5.0,19,0.00,,---,0.00,VWS V14.01,2012-06-30 18:26:00,
2012-06-30 12:31:00,84.6,36.5,29.61,SW,232,2.0,4.0,18,0.00,,---,0.00,VWS V14.01,2012-06-30 18:31:00,
2012-06-30 12:36:00,84.7,36.5,29.61,SW,232,4.0,5.0,18,0.00,,---,0.00,VWS V14.01,2012-06-30 18:36:00,
2012-06-30 12:41:00,84.8,35.2,29.62,SW,232,1.0,7.0,17,0.00,,---,0.00,VWS V14.01,2012-06-30 18:41:00,
2012-06-30 12:46:00,85.4,37.1,29.61,SW,236,0.0,8.0,18,0.00,,---,0.00,VWS V14.01,2012-06-30 18:46:00,
2012-06-30 12:51:00,84.4,36.3,29.60,West,261,0.0,11.0,18,0.00,,---,0.00,VWS V14.01,2012-06-30 18:51:00,
2012-06-30 12:57:00,85.0,36.8,29.60,West,260,0.0,6.0,18,0.00,,---,0.00,VWS V14.01,2012-06-30 18:57:00,
2012-06-30 13:02:00,86.3,37.8,29.60,West,261,3.0,4.0,18,0.00,,---,0.00,VWS V14.01,2012-06-30 19:02:00,
2012-06-30 13:07:00,86.1,37.7,29.62,West,261,5.0,10.0,18,0.00,,---,0.00,VWS V14.01,2012-06-30 19:07:00,
2012-06-30 13:12:00,85.2,38.3,29.63,WSW,258,8.0,14.0,19,0.00,,---,0.00,VWS V14.01,2012-06-30 19:12:00,
2012-06-30 13:17:00,85.3,38.4,29.63,WSW,254,14.0,16.0,19,0.00,,---,0.00,VWS V14.01,2012-06-30 19:17:00,
2012-06-30 13:22:00,85.0,36.8,29.63,WSW,257,4.0,14.0,18,0.00,,---,0.00,VWS V14.01,2012-06-30 19:22:00,
2012-06-30 13:27:00,85.2,37.0,29.62,WSW,257,6.0,12.0,18,0.00,,---,0.00,VWS V14.01,2012-06-30 19:27:00,
2012-06-30 13:32:00,85.4,37.1,29.62,WSW,249,9.0,10.0,18,0.00,,---,0.00,VWS V14.01,2012-06-30 19:32:00,
2012-06-30 13:37:00,86.0,36.2,29.61,WSW,248,7.0,10.0,17,0.00,,---,0.00,VWS V14.01,2012-06-30 19:37:00,
2012-06-30 13:42:00,86.4,35.0,29.62,WSW,248,6.0,12.0,16,0.00,,---,0.00,VWS V14.01,2012-06-30 19:42:00,
2012-06-30 13:47:00,87.0,35.4,29.61,WSW,248,4.0,10.0,16,0.00,,---,0.00,VWS V14.01,2012-06-30 19:47:00,
2012-06-30 13:52:00,86.5,33.4,29.61,WSW,257,9.0,15.0,15,0.00,,---,0.00,VWS V14.01,2012-06-30 19:52:00,
2012-06-30 13:57:00,86.0,34.6,29.61,West,271,6.0,13.0,16,0.00,,---,0.00,VWS V14.01,2012-06-30 19:57:00,
2012-06-30 14:02:00,85.7,34.4,29.61,West,272,10.0,10.0,16,0.00,,---,0.00,VWS V14.01,2012-06-30 20:02:00,
2012-06-30 14:07:00,85.9,32.9,29.63,West,261,8.0,9.0,15,0.00,,---,0.00,VWS V14.01,2012-06-30 20:07:00,
2012-06-30 14:12:00,86.1,34.7,29.64,West,263,5.0,11.0,16,0.00,,---,0.00,VWS V14.01,2012-06-30 20:12:00,
2012-06-30 14:17:00,86.1,33.1,29.64,West,263,6.0,12.0,15,0.00,,---,0.00,VWS V14.01,2012-06-30 20:17:00,
2012-06-30 14:22:00,86.3,34.9,29.64,West,261,8.0,13.0,16,0.00,,---,0.00,VWS V14.01,2012-06-30 20:22:00,
2012-06-30 14:27:00,86.7,33.6,29.64,West,267,8.0,8.0,15,0.00,,---,0.00,VWS V14.01,2012-06-30 20:27:00,
2012-06-30 14:32:00,86.8,33.7,29.64,West,265,0.0,0.0,15,0.00,,---,0.00,VWS V14.01,2012-06-30 20:32:00,
2012-06-30 14:37:00,87.1,32.2,29.64,West,266,0.0,0.0,14,0.00,,---,0.00,VWS V14.01,2012-06-30 20:37:00,
2012-06-30 14:42:00,88.5,33.3,29.62,West,266,1.0,1.0,14,0.00,,---,0.00,VWS V14.01,2012-06-30 20:42:00,
2012-06-30 14:47:00,88.3,38.0,29.62,SE,131,6.0,6.0,17,0.00,,---,0.00,VWS V14.01,2012-06-30 20:47:00,
2012-06-30 14:52:00,86.2,37.8,29.63,ESE,118,2.0,2.0,18,0.00,,---,0.00,VWS V14.01,2012-06-30 20:52:00,
2012-06-30 14:58:00,85.5,37.2,29.64,SE,130,3.0,9.0,18,0.00,,---,0.00,VWS V14.01,2012-06-30 20:58:00,
2012-06-30 15:03:00,84.5,37.8,29.64,SE,144,2.0,7.0,19,0.00,,---,0.00,VWS V14.01,2012-06-30 21:03:00,
2012-06-30 15:08:00,84.3,37.6,29.65,East,99,4.0,12.0,19,0.00,,---,0.00,VWS V14.01,2012-06-30 21:08:00,
2012-06-30 15:13:00,85.6,37.3,29.63,SE,146,5.0,7.0,18,0.00,,---,0.00,VWS V14.01,2012-06-30 21:13:00,
2012-06-30 15:18:00,86.0,37.6,29.63,South,178,4.0,6.0,18,0.00,,---,0.00,VWS V14.01,2012-06-30 21:18:00,
2012-06-30 15:23:00,86.0,36.2,29.63,SE,139,1.0,3.0,17,0.00,,---,0.00,VWS V14.01,2012-06-30 21:23:00,
2012-06-30 15:28:00,85.4,35.7,29.63,SE,134,3.0,3.0,17,0.00,,---,0.00,VWS V14.01,2012-06-30 21:28:00,
2012-06-30 15:33:00,85.3,34.1,29.63,SSW,201,4.0,10.0,16,0.00,,---,0.00,VWS V14.01,2012-06-30 21:33:00,
2012-06-30 15:38:00,84.7,35.1,29.63,SSW,206,0.0,2.0,17,0.00,,---,0.00,VWS V14.01,2012-06-30 21:38:00,
2012-06-30 15:43:00,84.9,33.8,29.63,South,184,0.0,0.0,16,0.00,,---,0.00,VWS V14.01,2012-06-30 21:43:00,
2012-06-30 15:48:00,85.4,35.7,29.63,South,184,0.0,1.0,17,0.00,,---,0.00,VWS V14.01,2012-06-30 21:48:00,
2012-06-30 15:53:00,85.6,35.8,29.63,South,184,6.0,6.0,17,0.00,,---,0.00,VWS V14.01,2012-06-30 21:53:00,
2012-06-30 15:58:00,84.9,38.1,29.64,WSW,241,6.0,8.0,19,0.00,,---,0.00,VWS V14.01,2012-06-30 21:58:00,
2012-06-30 16:03:00,83.6,35.7,29.66,West,270,3.0,6.0,18,0.00,,---,0.00,VWS V14.01,2012-06-30 22:03:00,
2012-06-30 16:08:00,82.8,37.7,29.68,WNW,286,1.0,4.0,20,0.00,,---,0.00,VWS V14.01,2012-06-30 22:08:00,
2012-06-30 16:13:00,82.5,36.1,29.69,NE,53,9.0,9.0,19,0.00,,---,0.00,VWS V14.01,2012-06-30 22:13:00,
2012-06-30 16:18:00,81.0,36.2,29.71,NNW,340,12.0,12.0,20,0.00,,---,0.00,VWS V14.01,2012-06-30 22:18:00,
2012-06-30 16:23:00,79.0,39.2,29.73,West,273,5.0,12.0,24,0.00,,---,0.00,VWS V14.01,2012-06-30 22:23:00,
2012-06-30 16:28:00,78.2,38.5,29.73,West,267,7.0,14.0,24,0.00,,---,0.00,VWS V14.01,2012-06-30 22:28:00,
2012-06-30 16:33:00,77.2,39.7,29.75,West,262,5.0,7.0,26,0.00,,---,0.00,VWS V14.01,2012-06-30 22:33:00,
2012-06-30 16:38:00,76.7,40.2,29.75,West,265,2.0,5.0,27,0.00,,---,0.00,VWS V14.01,2012-06-30 22:38:00,
2012-06-30 16:43:00,76.3,39.9,29.74,WNW,299,7.0,15.0,27,0.00,,---,0.00,VWS V14.01,2012-06-30 22:43:00,
2012-06-30 16:48:00,76.2,38.8,29.74,WSW,254,12.0,16.0,26,0.00,,---,0.00,VWS V14.01,2012-06-30 22:48:00,
2012-06-30 16:53:00,77.0,37.5,29.73,West,265,6.0,11.0,24,0.00,,---,0.00,VWS V14.01,2012-06-30 22:53:00,
2012-06-30 16:58:00,78.3,36.4,29.72,NW,322,14.0,20.0,22,0.00,,---,0.00,VWS V14.01,2012-06-30 22:58:00,
2012-06-30 17:03:00,78.2,36.3,29.72,East,95,7.0,28.0,22,0.00,,---,0.00,VWS V14.01,2012-06-30 23:03:00,
2012-06-30 17:08:00,79.6,36.3,29.71,NE,44,14.0,14.0,21,0.00,,---,0.00,VWS V14.01,2012-06-30 23:08:00,
2012-06-30 17:13:00,81.2,35.1,29.69,North,360,9.0,9.0,19,0.00,,---,0.00,VWS V14.01,2012-06-30 23:13:00,
2012-06-30 17:18:00,81.6,35.4,29.67,NNW,331,7.0,7.0,19,0.00,,---,0.00,VWS V14.01,2012-06-30 23:18:00,
2012-06-30 17:23:00,81.8,34.2,29.66,NNW,333,0.0,2.0,18,0.00,,---,0.00,VWS V14.01,2012-06-30 23:23:00,
2012-06-30 17:28:00,82.2,34.5,29.66,NNW,333,0.0,1.0,18,0.00,,---,0.00,VWS V14.01,2012-06-30 23:28:00,
2012-06-30 17:33:00,82.2,35.9,29.65,NNW,333,0.0,1.0,19,0.00,,---,0.00,VWS V14.01,2012-06-30 23:33:00,
2012-06-30 17:38:00,82.1,34.4,29.65,NNW,333,0.0,1.0,18,0.00,,---,0.00,VWS V14.01,2012-06-30 23:38:00,
2012-06-30 17:43:00,82.6,36.2,29.65,NNW,333,0.0,0.0,19,0.00,,---,0.00,VWS V14.01,2012-06-30 23:43:00,
2012-06-30 17:48:00,83.1,35.2,29.65,North,360,0.0,3.0,18,0.00,,---,0.00,VWS V14.01,2012-06-30 23:48:00,
2012-06-30 17:53:00,83.3,36.8,29.64,NNE,19,0.0,2.0,19,0.00,,---,0.00,VWS V14.01,2012-06-30 23:53:00,
2012-06-30 17:58:00,83.7,37.1,29.62,NNE,19,0.0,0.0,19,0.00,,---,0.00,VWS V14.01,2012-06-30 23:58:00,
2012-06-30 18:03:00,84.1,36.1,29.60,NNE,19,0.0,0.0,18,0.00,,---,0.00,VWS V14.01,2012-07-01 00:03:00,
2012-06-30 18:08:00,84.7,35.1,29.60,NNE,19,0.0,1.0,17,0.00,,---,0.00,VWS V14.01,2012-07-01 00:08:00,
2012-06-30 18:14:00,84.6,35.0,29.60,NE,40,0.0,2.0,17,0.00,,---,0.00,VWS V14.01,2012-07-01 00:14:00,
2012-06-30 18:19:00,84.6,36.5,29.59,NE,51,4.0,6.0,18,0.00,,---,0.00,VWS V14.01,2012-07-01 00:19:00,
2012-06-30 18:24:00,84.2,36.2,29.59,NE,51,1.0,4.0,18,0.00,,---,0.00,VWS V14.01,2012-07-01 00:24:00,
2012-06-30 18:29:00,84.2,36.2,29.59,NE,51,1.0,2.0,18,0.00,,---,0.00,VWS V14.01,2012-07-01 00:29:00,
2012-06-30 18:34:00,84.0,36.0,29.60,ENE,74,0.0,5.0,18,0.00,,---,0.00,VWS V14.01,2012-07-01 00:34:00,
2012-06-30 18:39:00,83.6,34.2,29.59,ENE,74,2.0,4.0,17,0.00,,---,0.00,VWS V14.01,2012-07-01 00:39:00,
2012-06-30 18:44:00,83.4,34.1,29.61,ENE,74,0.0,3.0,17,0.00,,---,0.00,VWS V14.01,2012-07-01 00:44:00,
2012-06-30 18:49:00,83.2,35.3,29.62,ENE,74,0.0,0.0,18,0.00,,---,0.00,VWS V14.01,2012-07-01 00:49:00,
2012-06-30 18:54:00,83.3,36.8,29.61,ENE,74,1.0,2.0,19,0.00,,---,0.00,VWS V14.01,2012-07-01 00:54:00,
2012-06-30 18:59:00,82.9,37.8,29.61,ENE,69,2.0,5.0,20,0.00,,---,0.00,VWS V14.01,2012-07-01 00:59:00,
2012-06-30 19:04:00,82.5,39.9,29.54,NW,320,5.0,7.0,22,0.00,,---,0.00,VWS V14.01,2012-07-01 01:04:00,
2012-06-30 19:09:00,82.3,38.5,29.55,WNW,289,6.0,6.0,21,0.00,,---,0.00,VWS V14.01,2012-07-01 01:09:00,
2012-06-30 19:14:00,81.1,38.7,29.56,NNW,348,12.0,13.0,22,0.00,,---,0.00,VWS V14.01,2012-07-01 01:14:00,
2012-06-30 19:19:00,80.5,37.0,29.56,North,355,0.0,12.0,21,0.00,,---,0.00,VWS V14.01,2012-07-01 01:19:00,
2012-06-30 19:24:00,81.0,36.2,29.57,NNW,341,9.0,12.0,20,0.00,,---,0.00,VWS V14.01,2012-07-01 01:24:00,
2012-06-30 19:29:00,80.0,37.8,29.56,WNW,295,5.0,6.0,22,0.00,,---,0.00,VWS V14.01,2012-07-01 01:29:00,
2012-06-30 19:34:00,78.9,36.9,29.57,North,350,10.0,13.0,22,0.00,,---,0.00,VWS V14.01,2012-07-01 01:34:00,
2012-06-30 19:39:00,78.7,36.7,29.58,North,355,11.0,12.0,22,0.00,,---,0.00,VWS V14.01,2012-07-01 01:39:00,
2012-06-30 19:44:00,78.7,36.7,29.58,NNW,348,10.0,11.0,22,0.00,,---,0.00,VWS V14.01,2012-07-01 01:44:00,
2012-06-30 19:49:00,78.7,35.5,29.58,NNW,346,1.0,9.0,21,0.00,,---,0.00,VWS V14.01,2012-07-01 01:49:00,
2012-06-30 19:54:00,78.7,36.7,29.58,North,350,0.0,2.0,22,0.00,,---,0.00,VWS V14.01,2012-07-01 01:54:00,
2012-06-30 19:59:00,78.3,35.2,29.59,North,349,0.0,2.0,21,0.00,,---,0.00,VWS V14.01,2012-07-01 01:59:00,
2012-06-30 20:04:00,77.2,35.5,29.54,NNE,27,1.0,5.0,22,0.00,,---,0.00,VWS V14.01,2012-07-01 02:04:00,
2012-06-30 20:09:00,76.4,34.8,29.54,NNE,27,1.0,2.0,22,0.00,,---,0.00,VWS V14.01,2012-07-01 02:09:00,
2012-06-30 20:14:00,75.9,35.5,29.56,NNE,27,0.0,2.0,23,0.00,,---,0.00,VWS V14.01,2012-07-01 02:14:00,
2012-06-30 20:19:00,75.1,37.9,29.55,NW,325,2.0,4.0,26,0.00,,---,0.00,VWS V14.01,2012-07-01 02:19:00,
2012-06-30 20:24:00,74.0,38.9,29.57,NW,324,2.0,4.0,28,0.00,,---,0.00,VWS V14.01,2012-07-01 02:24:00,
2012-06-30 20:29:00,72.2,39.1,29.58,NW,317,0.0,2.0,30,0.00,,---,0.00,VWS V14.01,2012-07-01 02:29:00,
2012-06-30 20:34:00,70.7,38.6,29.59,NW,317,0.0,2.0,31,0.00,,---,0.00,VWS V14.01,2012-07-01 02:34:00,
2012-06-30 20:39:00,69.9,37.9,29.60,NW,317,0.0,0.0,31,0.00,,---,0.00,VWS V14.01,2012-07-01 02:39:00,
2012-06-30 20:44:00,69.5,37.6,29.60,NW,317,0.0,1.0,31,0.00,,---,0.00,VWS V14.01,2012-07-01 02:44:00,
2012-06-30 20:49:00,69.2,37.3,29.61,NW,317,0.0,0.0,31,0.00,,---,0.00,VWS V14.01,2012-07-01 02:49:00,
2012-06-30 20:54:00,68.8,37.8,29.61,NW,317,0.0,0.0,32,0.00,,---,0.00,VWS V14.01,2012-07-01 02:54:00,
2012-06-30 20:59:00,68.2,37.2,29.62,NW,317,0.0,1.0,32,0.00,,---,0.00,VWS V14.01,2012-07-01 02:59:00,
2012-06-30 21:04:00,67.7,36.8,29.57,NW,317,0.0,0.0,32,0.00,,---,0.00,VWS V14.01,2012-07-01 03:04:00,
2012-06-30 21:09:00,67.3,38.0,29.57,NW,317,0.0,0.0,34,0.00,,---,0.00,VWS V14.01,2012-07-01 03:09:00,
2012-06-30 21:14:00,66.9,36.9,29.57,NW,317,0.0,0.0,33,0.00,,---,0.00,VWS V14.01,2012-07-01 03:14:00,
2012-06-30 21:19:00,66.5,36.5,29.57,NW,317,0.0,0.0,33,0.00,,---,0.00,VWS V14.01,2012-07-01 03:19:00,
2012-06-30 21:25:00,66.2,35.5,29.60,NW,317,0.0,0.0,32,0.00,,---,0.00,VWS V14.01,2012-07-01 03:25:00,
2012-06-30 21:30:00,66.0,36.1,29.59,NW,317,0.0,1.0,33,0.00,,---,0.00,VWS V14.01,2012-07-01 03:30:00,
2012-06-30 21:35:00,65.8,35.9,29.59,NW,317,0.0,0.0,33,0.00,,---,0.00,VWS V14.01,2012-07-01 03:35:00,
2012-06-30 21:40:00,65.4,35.6,29.60,NW,317,0.0,1.0,33,0.00,,---,0.00,VWS V14.01,2012-07-01 03:40:00,